Regional Weather Roundup
Issued by NWS Upton, NY

Current Version | Previous Version | Text Only | Print | Product List | Glossary On
Versions: 1 2 3 4 5 6 7 8 9 10 11 12 13 14 15 16 17 18 19 20 21 22 23 24 25 26 27
000
ASUS41 KOKX 220208
RWROKX

REGIONAL WEATHER ROUNDUP
NATIONAL WEATHER SERVICE NEW YORK NY
1000 PM EDT MON AUG 21 2017

NOTE: "FAIR" INDICATES FEW OR NO CLOUDS BELOW 12,000 FEET WITH NO
SIGNIFICANT WEATHER AND/OR OBSTRUCTIONS TO VISIBILITY.

NYZ071-072-176-178-NJZ106-104-220300-
NEW YORK CITY METRO AREA

CITY           SKY/WX    TMP DP  RH WIND       PRES   REMARKS
Central Park   CLOUDY    80  69  69 VRB6G17   30.14S
Bronx Bot Gard   N/A     81  68  65 NW10      30.13R
LaGuardia APRT PTCLDY    81  71  71 SW12      30.11R
Kennedy INTL   CLOUDY    77  73  87 SW10      30.12S
Breezy Point     N/A     73 N/A N/A S6          N/A
Newark/Liberty PTCLDY    79  70  74 SW9       30.11S
Teterboro      PTCLDY    80  69  69 S9        30.10S
$$

NYZ177-179-078>081-220300-
LONG ISLAND NEW YORK

CITY           SKY/WX    TMP DP  RH WIND       PRES   REMARKS
Jones Beach      N/A     75 N/A N/A SW5G12      N/A
Matinecock PT    N/A     77 N/A N/A SW13G18     N/A
Farmingdale    CLEAR     76  71  85 SW10      30.12F
MacArthur/ISP  PTCLDY    76  72  87 SW9       30.12S
Shirley        CLEAR     77  72  84 SW9       30.13S
Mt Sinai Harb    N/A    N/A N/A N/A SW9         N/A
Westhampton    CLEAR     74  69  85 SW7       30.14S
East Hampton   FAIR      72  69  91 SW6       30.12F
Montauk          N/A     74  70  87 SW9       30.13S
$$

NYZ052-065-067-220300-
HUDSON VALLEY

CITY           SKY/WX    TMP DP  RH WIND       PRES   REMARKS
White Plains   CLEAR     75  69  81 S3        30.12R
Larchmont Harb   N/A     75 N/A N/A S10         N/A
Croton On Huds   N/A     81 N/A N/A S5          N/A
Newburgh       PTCLDY    77  72  83 SW6       30.12R
Montgomery     CLEAR     74  70  87 SW3       30.09S
Poughkeepsie   PTCLDY    73  68  84 CALM      30.07F
Albany         PTCLDY    77  67  71 S7        30.05F
$$

NJZ001-105-106-008-010-013-015-019>022-104-220300-
NEW JERSEY

CITY           SKY/WX    TMP DP  RH WIND       PRES   REMARKS
Newark/Liberty PTCLDY    79  70  74 SW9       30.11S
Teterboro      PTCLDY    80  69  69 S9        30.10S
Caldwell       PTCLDY    78  71  79 VRB3      30.11S
Somerville     CLOUDY    73  71  93 CALM      30.10F
Linden         FAIR      78  69  72 SW3       30.12S
Perth Amboy      N/A     77 N/A N/A SW8         N/A
Sussex         PTCLDY    74  72  93 S5        30.11F
Andover          N/A     73  70  90 CALM      30.13S
Trenton        PTCLDY    77  71  82 S7        30.12F
Millville      CLOUDY    78  75  90 CALM      30.13F
Atlantic City  CLEAR     77  72  84 S7        30.14S
Wrightstown    PTCLDY    74  70  88 S6        30.10F
Toms River     CLEAR     73  70  90 S5        30.14S
Belmar         CLEAR     75  68  78 S5        30.15
$$

PAZ047>061-062-071-220300-
EASTERN PENNSYLVANIA

CITY           SKY/WX    TMP DP  RH WIND       PRES   REMARKS
Philadelphia   CLOUDY    79  72  79 S6        30.13S
Allentown      CLOUDY    76  71  85 CALM      30.12F
Scranton       CLEAR     70  68  93 CALM      30.13S
$$

CTZ002-004>006-009-010-012-RIZ004-006-007-MAZ004-011-015-220300-
SOUTHERN NEW ENGLAND
 IN CT

CITY           SKY/WX    TMP DP  RH WIND       PRES   REMARKS
Bradley INTL   CLEAR     75  65  70 S7        30.09S
Hartford       CLEAR     76  65  68 S7        30.09S
Danbury        CLEAR     75  68  78 S7        30.12F
Wtrbury/Oxford CLEAR     72  66  81 SW5       30.13F
Norwalk Harbor   N/A     75 N/A N/A SW6         N/A
Bridgeport     CLEAR     76  70  82 SW9       30.11S
Meriden        CLEAR     74  66  76 S5        30.10S
New Haven      CLEAR     75  68  78 SW5       30.11S
Chester        FAIR      73  68  83 SW6       30.13S
Groton         CLEAR     73  66  78 W5        30.11S
Wilimantic     CLEAR     73  65  75 CALM      30.11F

 IN RI

CITY           SKY/WX    TMP DP  RH WIND       PRES   REMARKS
Providence     PTCLDY    74  64  71 SW7       30.11S
Block Island   CLEAR     72  69  90 SW15      30.13S
Westerly       CLEAR     74  67  78 SW6       30.13S
 IN MA

CITY           SKY/WX    TMP DP  RH WIND       PRES   REMARKS
Boston         CLEAR     77  64  64 SW13      30.07S
Worcester      CLEAR     70  62  76 SW10      30.12F
Westfield      CLEAR     73  67  81 S8        30.09S
Provincetown   CLEAR     70  68  93 SW10      30.09S
Nantucket      CLEAR     69  68  96 W10       30.12S
$$

ANZ330-335-338-340-345-350-353-355-220300-
COASTAL MARINE OBSERVATIONS


STATION/POSITION TIME  SKY/WX   TEMP    WIND        PRES    VSBY  WAVE
                                AIR SEA DIR/SP/G                  HT/PER
                 (UTC)          (F)     (DEG/KT/KT) (MB)    (MI)  (FT/S)
NY HARB ENTRANCE 0050            77 76  200/ 16/ 19 1019.3          3/ 4
GREAT SOUTH BAY  0130            76 79  230/ 16/ 17   N/A
23 SSW MONTAUK P 0150            74 73              1020.3          2/ 3
15 E BARNEGAT LI 0130               77                N/A           3/ 4
HUDSON CANYON    0150            75 75  220/ 10/ 12 1020.3          2/10
KINGS POINT      0148            78 74  230/ 10/ 12 1019.6
EXECUTION ROCKS  NOT AVBL
WESTERN LI SOUND NOT AVBL
CENTRAL LI SOUND NOT AVBL
EASTERN LI SOUND NOT AVBL
ROBBINS REEF     0142                   210/ 10/ 14 1020.5
$$


>>>>>>>>>>>>>>>>>>>>>>>>>>>> KEY <<<<<<<<<<<<<<<<<<<<<<<<<<<
>                                                          <
>     SKY/WX - Sky Condition/Present Weather               <
>     TMP    - Temperature in Fahrenheit                   <
>     DP     - Dew Point in Fahrenheit                     <
>     RH     - Relative Humidity in Percent                <
>     WIND   - Direction (from) and Speed in MPH           <
>     PRES   - Mean Sea Level Pressure (inches of Hg)      <
>     WCI    - Wind Chill Index                            <
>     VSB    - VISIBILITY IN MILES                         <
>     HX     - HEAT INDEX                                  <
>     TC     - TEMPERATURE IN CELSIUS                      <
>     VRB    - VARIABLE WIND DIRECTION                     <
>                                                          <
>>>>>>>>>>>>>>>>>>>>>>>>>>>> KEY <<<<<<<<<<<<<<<<<<<<<<<<<<<




USA.gov is the U.S. government's official web portal to all federal, state and local government web resources and services.